When you browse on this site, cookies collect data to enhance your experience and personalize the content and advertising you see.
Visit our Privacy Policy to learn more. By continuing to use the site, you agree to this use of cookies and data.
  • In Austria
  • List of Countries
  • For 7 days
  • Water Temperature
  • Satellite Maps
  • Weather Map
  • News
  • Weather Widgets
  • user-avatar
    Login

    Hourly Weather Rohovi Smolyary

    Today, 25 April, Thursday

    Time Temperature Precipitation Wind Pressure Humidity
    00:00 +10°C° 0 mm 5 mps 750 mmHg 68%
    01:00 +9°C° 0 mm 5 mps 750 mmHg 68%
    02:00 +10°C° 0 mm 4 mps 749 mmHg 70%
    03:00 +10°C° 0 mm 4 mps 749 mmHg 70%
    04:00 +10°C° 0 mm 4 mps 749 mmHg 71%
    05:00 +8°C° 0 mm 4 mps 749 mmHg 72%
    06:00 +10°C° 0 mm 4 mps 749 mmHg 71%
    07:00 +11°C° 0 mm 4 mps 749 mmHg 70%
    08:00 +12°C° 0 mm 5 mps 749 mmHg 68%
    09:00 +15°C° 0 mm 5 mps 749 mmHg 65%
    10:00 +17°C° 0 mm 5 mps 749 mmHg 61%
    11:00 +20°C° 0 mm 5 mps 749 mmHg 57%
    12:00 +21°C° 0.2 mm 5 mps 749 mmHg 55%
    13:00 +22°C° 0.2 mm 6 mps 748 mmHg 53%
    14:00 +23°C° 0.2 mm 6 mps 748 mmHg 52%
    15:00 +22°C° 1 mm 6 mps 748 mmHg 55%
    16:00 +22°C° 1 mm 5 mps 748 mmHg 57%
    17:00 +22°C° 1 mm 5 mps 747 mmHg 60%
    18:00 +20°C° 0.4 mm 4 mps 747 mmHg 67%
    19:00 +19°C° 0.4 mm 4 mps 747 mmHg 73%
    20:00 +17°C° 0.4 mm 4 mps 747 mmHg 80%
    21:00 +15°C° 0 mm 4 mps 747 mmHg 82%
    22:00 +15°C° 0 mm 4 mps 747 mmHg 84%
    23:00 +14°C° 0 mm 4 mps 747 mmHg 87%

    Tomorrow, 26 April, Friday

    Time Temperature Precipitation Wind Pressure Humidity
    00:00 +14°C° 0.2 mm 4 mps 747 mmHg 89%
    01:00 +13°C° 0.2 mm 4 mps 747 mmHg 90%
    02:00 +13°C° 0.2 mm 3 mps 747 mmHg 92%
    03:00 +13°C° 0 mm 3 mps 746 mmHg 93%
    04:00 +12°C° 0 mm 3 mps 746 mmHg 94%
    05:00 +12°C° 0 mm 3 mps 746 mmHg 94%
    06:00 +13°C° 0 mm 3 mps 746 mmHg 89%
    07:00 +15°C° 0 mm 4 mps 746 mmHg 85%
    08:00 +17°C° 0 mm 4 mps 746 mmHg 80%
    09:00 +19°C° 0 mm 5 mps 745 mmHg 73%
    10:00 +21°C° 0 mm 5 mps 745 mmHg 66%
    11:00 +23°C° 0 mm 6 mps 745 mmHg 59%
    12:00 +24°C° 0.4 mm 6 mps 744 mmHg 56%
    13:00 +24°C° 0.4 mm 6 mps 744 mmHg 54%
    14:00 +26°C° 0.4 mm 6 mps 744 mmHg 51%
    15:00 +25°C° 0.1 mm 5 mps 743 mmHg 54%
    16:00 +25°C° 0.1 mm 4 mps 743 mmHg 57%
    17:00 +23°C° 0.1 mm 4 mps 743 mmHg 59%
    18:00 +22°C° 0.1 mm 3 mps 742 mmHg 64%
    19:00 +21°C° 0.1 mm 3 mps 742 mmHg 68%
    20:00 +19°C° 0.1 mm 3 mps 742 mmHg 73%
    21:00 +19°C° 0.6 mm 3 mps 742 mmHg 76%
    22:00 +18°C° 0.6 mm 4 mps 742 mmHg 78%
    23:00 +17°C° 0.6 mm 4 mps 742 mmHg 81%

    Day after tomorrow, 27 April, Saturday

    Time Temperature Precipitation Wind Pressure Humidity
    00:00 +17°C° 0.3 mm 4 mps 742 mmHg 83%
    01:00 +16°C° 0.3 mm 3 mps 742 mmHg 86%
    02:00 +16°C° 0.3 mm 3 mps 742 mmHg 88%
    03:00 +14°C° 0 mm 3 mps 741 mmHg 88%
    04:00 +14°C° 0 mm 3 mps 741 mmHg 88%
    05:00 +14°C° 0 mm 3 mps 741 mmHg 88%
    06:00 +15°C° 0 mm 4 mps 741 mmHg 84%
    07:00 +16°C° 0 mm 5 mps 742 mmHg 79%
    08:00 +17°C° 0 mm 6 mps 742 mmHg 74%
    09:00 +19°C° 0 mm 5 mps 742 mmHg 71%
    10:00 +21°C° 0 mm 5 mps 742 mmHg 67%
    11:00 +22°C° 0 mm 4 mps 742 mmHg 63%
    12:00 +22°C° 0 mm 4 mps 742 mmHg 62%
    13:00 +22°C° 0 mm 4 mps 742 mmHg 60%
    14:00 +22°C° 0 mm 4 mps 742 mmHg 59%
    15:00 +22°C° 0.1 mm 4 mps 742 mmHg 60%
    16:00 +21°C° 0.1 mm 3 mps 742 mmHg 61%
    17:00 +21°C° 0.1 mm 3 mps 742 mmHg 62%
    18:00 +20°C° 0 mm 3 mps 742 mmHg 67%
    19:00 +18°C° 0 mm 3 mps 742 mmHg 73%
    20:00 +17°C° 0 mm 2 mps 742 mmHg 79%
    21:00 +16°C° 0.1 mm 2 mps 742 mmHg 81%
    22:00 +15°C° 0.1 mm 2 mps 742 mmHg 84%
    23:00 +14°C° 0.1 mm 2 mps 742 mmHg 87%

    28 April, Sunday

    Time Temperature Precipitation Wind Pressure Humidity
    00:00 +14°C° 0.1 mm 2 mps 742 mmHg 88%
    01:00 +14°C° 0.1 mm 2 mps 742 mmHg 89%
    02:00 +14°C° 0.1 mm 2 mps 741 mmHg 90%
    03:00 +13°C° 0.3 mm 2 mps 741 mmHg 91%
    04:00 +13°C° 0.3 mm 2 mps 741 mmHg 93%
    05:00 +13°C° 0.3 mm 2 mps 741 mmHg 94%
    06:00 +12°C° 0.5 mm 3 mps 741 mmHg 94%
    07:00 +12°C° 0.5 mm 3 mps 741 mmHg 93%
    08:00 +13°C° 0.5 mm 3 mps 742 mmHg 93%
    09:00 +13°C° 0.9 mm 4 mps 742 mmHg 92%
    10:00 +13°C° 0.9 mm 4 mps 742 mmHg 91%
    11:00 +12°C° 0.9 mm 5 mps 742 mmHg 90%
    12:00 +13°C° 0.1 mm 5 mps 742 mmHg 88%
    13:00 +13°C° 0.1 mm 5 mps 742 mmHg 87%
    14:00 +13°C° 0.1 mm 5 mps 742 mmHg 85%
    15:00 +13°C° 0.1 mm 6 mps 742 mmHg 85%
    16:00 +13°C° 0.1 mm 6 mps 742 mmHg 84%
    17:00 +13°C° 0.1 mm 6 mps 742 mmHg 84%
    18:00 +11°C° 0.3 mm 6 mps 742 mmHg 86%
    19:00 +12°C° 0.3 mm 5 mps 742 mmHg 89%
    20:00 +12°C° 0.3 mm 5 mps 742 mmHg 91%
    21:00 +12°C° 0.3 mm 4 mps 742 mmHg 93%
    22:00 +13°C° 0.3 mm 4 mps 742 mmHg 94%
    23:00 +13°C° 0.3 mm 3 mps 742 mmHg 96%

    29 April, Monday

    Time Temperature Precipitation Wind Pressure Humidity
    00:00 +13°C° 0.3 mm 4 mps 742 mmHg 96%
    01:00 +13°C° 0.3 mm 4 mps 742 mmHg 96%
    02:00 +13°C° 0.3 mm 4 mps 742 mmHg 95%
    03:00 +13°C° 0.3 mm 4 mps 742 mmHg 95%
    04:00 +13°C° 0.3 mm 4 mps 742 mmHg 94%
    05:00 +13°C° 0.3 mm 4 mps 742 mmHg 94%
    06:00 +12°C° 0.1 mm 5 mps 742 mmHg 93%
    07:00 +12°C° 0.1 mm 5 mps 742 mmHg 93%
    08:00 +10°C° 0.1 mm 6 mps 743 mmHg 92%
    09:00 +10°C° 0.1 mm 6 mps 743 mmHg 91%
    10:00 +9°C° 0.1 mm 7 mps 743 mmHg 90%
    11:00 +8°C° 0.1 mm 7 mps 744 mmHg 90%
    12:00 +8°C° 1 mm 7 mps 744 mmHg 90%
    13:00 +6°C° 1 mm 7 mps 744 mmHg 90%
    14:00 +5°C° 1 mm 6 mps 744 mmHg 91%
    15:00 +5°C° 0.8 mm 6 mps 744 mmHg 91%
    16:00 +5°C° 0.8 mm 6 mps 744 mmHg 91%
    17:00 +5°C° 0.8 mm 6 mps 744 mmHg 90%
    18:00 +5°C° 0.4 mm 6 mps 744 mmHg 90%
    19:00 +5°C° 0.4 mm 6 mps 744 mmHg 90%
    20:00 +5°C° 0.4 mm 6 mps 744 mmHg 90%
    21:00 +5°C° 0.2 mm 6 mps 745 mmHg 90%
    22:00 +5°C° 0.2 mm 6 mps 745 mmHg 89%
    23:00 +5°C° 0.2 mm 6 mps 745 mmHg 89%

    30 April, Tuesday

    Time Temperature Precipitation Wind Pressure Humidity
    00:00 +5°C° 0 mm 6 mps 745 mmHg 89%
    01:00 +4°C° 0 mm 6 mps 745 mmHg 89%
    02:00 +5°C° 0 mm 5 mps 744 mmHg 89%
    03:00 +5°C° 0.1 mm 5 mps 744 mmHg 89%
    04:00 +5°C° 0.1 mm 5 mps 744 mmHg 89%
    05:00 +5°C° 0.1 mm 5 mps 744 mmHg 89%
    06:00 +4°C° 0.1 mm 6 mps 744 mmHg 88%
    07:00 +4°C° 0.1 mm 6 mps 744 mmHg 87%
    08:00 +4°C° 0.1 mm 7 mps 744 mmHg 86%
    09:00 +4°C° 0.3 mm 7 mps 745 mmHg 86%
    10:00 +5°C° 0.3 mm 7 mps 745 mmHg 85%
    11:00 +5°C° 0.3 mm 7 mps 745 mmHg 85%
    12:00 +5°C° 0.5 mm 7 mps 745 mmHg 86%
    13:00 +5°C° 0.5 mm 7 mps 745 mmHg 86%
    14:00 +5°C° 0.5 mm 7 mps 745 mmHg 87%
    15:00 +5°C° 0.1 mm 6 mps 744 mmHg 87%
    16:00 +5°C° 0.1 mm 6 mps 744 mmHg 86%
    17:00 +5°C° 0.1 mm 6 mps 744 mmHg 85%
    18:00 +5°C° 0 mm 6 mps 744 mmHg 86%
    19:00 +5°C° 0 mm 6 mps 744 mmHg 86%
    20:00 +6°C° 0 mm 5 mps 744 mmHg 87%
    21:00 +5°C° 0.1 mm 5 mps 744 mmHg 87%
    22:00 +5°C° 0.1 mm 5 mps 744 mmHg 88%
    23:00 +5°C° 0.1 mm 5 mps 744 mmHg 88%
    Show more